This demonstration page uses our WeatherBlox Daily Observations layout. Learn more.

Left ArrowRight Arrow

41.86663, -103.66717

Hourly Observations for August 23, 2020

Temp ( °F °C ) Dew Point ( °F °C ) Humidity (%) Winds ( mph kmh ) Pressure ( in mb ) Visibility ( mi km ) Precip ( " mm )
12:53 am 00:53 Clear 67 19.4 57 13.9 71 71 E 7 11 29.86 1011 10 16 N/A
1:53 am 01:53 Clear 66 18.9 58 14.4 75 75 E 7 11 29.86 1011 10 16 N/A
2:53 am 02:53 Clear 65 18.3 59 15 81 81 NE 5 7 29.86 1011 10 16 N/A
3:53 am 03:53 Clear 62 16.7 58 14.4 86 86 WNW 5 7 29.88 1012 10 16 N/A
4:53 am 04:53 Clear 62 16.7 58 14.4 86 86 NNW 6 9 29.88 1012 9 14 N/A
5:53 am 05:53 Clear 61 16.1 56 13.3 84 84 undefined N/A 29.89 1012 10 16 N/A
6:53 am 06:53 Sunny 61 16.1 57 13.9 87 87 ENE 5 7 29.92 1013 9 14 N/A
7:53 am 07:53 Sunny 65 18.3 58 14.4 78 78 E 5 7 29.94 1014 8 13 N/A
8:53 am 08:53 Sunny 73 22.8 61 16.1 66 66 ESE 6 9 29.93 1013 10 16 N/A
9:53 am 09:53 Sunny 76 24.4 61 16.1 60 60 S 6 9 29.94 1014 10 16 N/A
10:53 am 10:53 Sunny 84 28.9 62 16.7 48 48 E 10 17 29.92 1013 10 16 N/A
11:53 am 11:53 Sunny 86 30 63 17.2 46 46 E 10 17 29.90 1013 10 16 N/A
12:53 pm 12:53 Sunny 92 33.3 63 17.2 38 38 E 10 17 29.87 1012 10 16 N/A
1:53 pm 13:53 Sunny 96 35.6 62 16.7 32 32 E 12 19 29.85 1011 10 16 N/A
2:53 pm 14:53 Sunny 100 37.8 47 8.3 16 16 SSE 13 20 29.83 1010 7 11 N/A
3:53 pm 15:53 Sunny 100 37.8 44 6.7 15 15 SE 13 20 29.82 1010 8 13 N/A
4:53 pm 16:53 Sunny 99 37.2 44 6.7 15 15 undefined N/A 29.80 1009 8 13 N/A
5:53 pm 17:53 Sunny 94 34.4 48 8.9 21 21 SE 10 17 29.80 1009 8 13 N/A
6:53 pm 18:53 Sunny 91 32.8 50 10 25 25 SSE 12 19 29.81 1010 9 14 N/A
7:53 pm 19:53 Clear 86 30 51 10.6 30 30 SE 10 17 29.83 1010 10 16 N/A
8:53 pm 20:53 Clear 77 25 54 12.2 45 45 E 9 15 29.85 1011 7 11 N/A
9:53 pm 21:53 Clear 75 23.9 55 12.8 50 50 E 13 20 29.87 1011 10 16 N/A
10:53 pm 22:53 Clear 76 24.4 56 13.3 50 50 E 13 20 29.85 1011 10 16 N/A
11:53 pm 23:53 Clear 76 24.4 57 13.9 52 52 ESE 12 19 29.86 1011 10 16 N/A

Powered by AerisWeather